Home > Time Zones > World Clock > Weather > Oman > Seeb > Past weeks

Flag for Oman Weather past 2 weeks in Seeb, Oman

Now
70 °F

Partly sunny.


Feels Like: 70 °F
Forecast: 68 / 73 °F
Wind: 17 mph from Northeast

Location: International Airport

Current Time: Feb 28, 2015 at 9:22:29 AM

Latest Report: Feb 28, 2015 at 8:50 AM


Visibility: N/A

Pressure: 30.01 "Hg

Humidity: 40%

Dew point: 45 °F

Location of SeebLocation

Historic Weather in Seeb — Graph

°F

Seeb temperature yesterday

Maximum temperature yesterday: 77 °F (at 11:50 AM)
Minimum temperature yesterday: 68 °F (at 2:50 AM)
Average temperature yesterday: 72 °F

Past Weeks' High & Low Weather Summary

 TemperatureHumidityPressure
High102 °F (Feb 20, 1:50 PM)78% (Feb 13, 7:50 AM)30.09 "Hg (Feb 13, 7:50 AM)
Low63 °F (Feb 25, 1:50 AM)6% (Feb 20, 11:50 AM)29.65 "Hg (Feb 20, 2:50 PM)
Average78 °F43%29.90 "Hg
* Reported Feb 13 7:50 AM — Feb 28 7:50 AM, Seeb, Weather by CustomWeather, © 2015

Note: Actual official high and low records may vary slightly from our data, if they occured in-between our weather recording intervals... More about our weather records

Advertising

Seeb weather history for previous 24 hours

 ConditionsComfort  
Time TempWeatherWind HumidityBarometerVisibility
7:50 AM
Sat, Feb 28
68 °FPartly sunny.17 mph43%30.01 "HgN/A
6:50 AM68 °FPartly sunny.15 mph43%29.98 "HgN/A
5:50 AM68 °FPassing clouds.15 mph46%29.95 "HgN/A
4:50 AM68 °FPartly cloudy.12 mph46%29.92 "Hg6 mi
3:50 AM68 °FPartly cloudy.12 mph46%29.92 "Hg6 mi
2:50 AM68 °FPartly cloudy.13 mph53%29.92 "Hg6 mi
1:50 AM68 °FPartly cloudy.14 mph53%29.92 "Hg5 mi
12:50 AM68 °FPassing clouds.N/A53%29.95 "Hg4 mi
11:50 PM
Fri, Feb 27
68 °FPassing clouds.10 mph53%29.95 "Hg4 mi
10:50 PM68 °FPassing clouds.12 mph60%29.95 "Hg4 mi
9:50 PM70 °FPartly cloudy.18 mph57%29.92 "Hg4 mi
8:50 PM68 °FPassing clouds.21 mph60%29.92 "Hg4 mi
7:50 PM70 °FPassing clouds.24 mph60%29.89 "Hg3 mi
6:50 PM75 °FPassing clouds.8 mph41%29.86 "HgN/A
5:50 PM75 °FPartly sunny.8 mph39%29.83 "HgN/A
4:50 PM75 °FPartly sunny.6 mph36%29.80 "HgN/A
3:50 PM75 °FScattered clouds.9 mph41%29.80 "Hg6 mi
2:50 PM75 °FPartly sunny.15 mph39%29.80 "Hg5 mi
1:50 PM77 °FPartly sunny.15 mph36%29.80 "Hg5 mi
12:50 PM75 °FScattered clouds.18 mph41%29.83 "HgN/A
11:50 AM77 °FScattered clouds.10 mph47%29.86 "HgN/A
10:50 AM75 °FScattered clouds.10 mph50%29.89 "HgN/A
9:50 AM75 °FScattered clouds.7 mph50%29.89 "Hg6 mi
Weather by CustomWeather, © 2015

See weather overviewHow to use our weather pages